Location: *
(35.2348°S, 91.3916°E)
Time: 15:32:27
(UTC+00:00)

Cosmos 2366 rocket - Pass Details

Date: 23 October 2019
Orbit: 955 x 998 km, 82.9° (Epoch: 12 November)

Event Time Altitude Azimuth Distance (km) Brightness Sun altitude
Rises 22:18:25 0° 187° (S) 3,703 7.2 -9.2°
Reaches altitude 10° 22:20:56 10° 186° (S) 2,755 6.6 -8.7°
Maximum altitude 22:27:17 90° 182° (S) 998 4.1 -7.5°
Drops below altitude 10° 22:33:37 10° 4° (N) 2,750 6.2 -6.2°
Sets 22:36:08 0° 4° (N) 3,695 6.9 -5.8°
